Location: Rio Negrinho
(26.2394°S, 49.4999°W)
Time: 02:27:49
(UTC+00:00)

NOAA 6 - Pass Details

Date: 06 October 2020
Orbit: 773 x 786 km, 98.7° (Epoch: 20 October)

Event Time Altitude Azimuth Distance (km) Brightness Sun altitude
Rises 21:34:53 0° 178° (S) 3,276 7.4 -4.0°
Reaches altitude 10° 21:37:19 10° 185° (S) 2,343 6.7 -4.5°
Maximum altitude 21:42:07 40° 253° (WSW) 1,137 5.7 -5.6°
Drops below altitude 10° 21:46:53 10° 322° (NW) 2,324 6.9 -6.7°
Sets 21:49:18 0° 329° (NNW) 3,246 7.5 -7.2°
